LOCATION_NAME,SAMPLE COLLECTION TIME,DOSE EQUIVALENT RATE (nSv/h),GAMMA COUNT RATE R02 (CPM),GAMMA COUNT RATE R03 (CPM),GAMMA COUNT RATE R04 (CPM),GAMMA COUNT RATE R05 (CPM),GAMMA COUNT RATE R06 (CPM),GAMMA COUNT RATE R07 (CPM),GAMMA COUNT RATE R08 (CPM),GAMMA COUNT RATE R09 (CPM),STATUS
ID: IDAHO FALLS,01/01/2017 00:51:00,,2560.00,1542.00,464.00,233.00,135.00,169.00,92.00,42.00,APPROVED
ID: IDAHO FALLS,01/01/2017 01:52:00,,2649.00,1673.00,508.00,259.00,147.00,193.00,104.00,45.00,APPROVED
ID: IDAHO FALLS,01/01/2017 02:52:00,,2703.00,1715.00,526.00,266.00,150.00,201.00,109.00,46.00,APPROVED
ID: IDAHO FALLS,01/01/2017 03:52:00,,2726.00,1765.00,543.00,275.00,156.00,206.00,109.00,45.00,APPROVED
ID: IDAHO FALLS,01/01/2017 04:52:00,,2834.00,1844.00,568.00,288.00,160.00,217.00,111.00,48.00,APPROVED
ID: IDAHO FALLS,01/01/2017 05:53:00,,2881.00,1897.00,592.00,298.00,170.00,228.00,116.00,48.00,APPROVED
ID: IDAHO FALLS,01/01/2017 06:53:00,,2855.00,1879.00,588.00,302.00,167.00,227.00,117.00,48.00,APPROVED
ID: IDAHO FALLS,01/01/2017 07:53:00,,2835.00,1872.00,587.00,297.00,166.00,227.00,115.00,49.00,APPROVED
ID: IDAHO FALLS,01/01/2017 08:53:00,,2843.00,1872.00,585.00,293.00,167.00,227.00,115.00,50.00,APPROVED
ID: IDAHO FALLS,01/01/2017 09:53:00,,2819.00,1862.00,577.00,295.00,167.00,229.00,115.00,48.00,APPROVED
ID: IDAHO FALLS,01/01/2017 10:54:00,,2809.00,1837.00,573.00,296.00,162.00,220.00,115.00,49.00,APPROVED
ID: IDAHO FALLS,01/01/2017 11:54:00,,2745.00,1800.00,558.00,286.00,161.00,214.00,112.00,45.00,APPROVED
ID: IDAHO FALLS,01/01/2017 12:54:00,,2738.00,1769.00,541.00,278.00,155.00,209.00,111.00,45.00,APPROVED
ID: IDAHO FALLS,01/01/2017 13:54:00,,2688.00,1715.00,534.00,266.00,149.00,207.00,105.00,46.00,APPROVED
ID: IDAHO FALLS,01/01/2017 14:54:00,,2690.00,1710.00,537.00,259.00,150.00,205.00,101.00,45.00,APPROVED
ID: IDAHO FALLS,01/01/2017 15:55:00,,2706.00,1726.00,545.00,266.00,151.00,207.00,103.00,46.00,APPROVED
ID: IDAHO FALLS,01/01/2017 16:55:00,,2745.00,1760.00,551.00,270.00,156.00,209.00,107.00,46.00,APPROVED
ID: IDAHO FALLS,01/01/2017 17:55:00,,2797.00,1789.00,556.00,284.00,157.00,214.00,110.00,47.00,APPROVED
ID: IDAHO FALLS,01/01/2017 18:55:00,,2775.00,1752.00,541.00,281.00,152.00,204.00,107.00,46.00,APPROVED
ID: IDAHO FALLS,01/01/2017 19:55:00,,2746.00,1727.00,524.00,274.00,153.00,199.00,107.00,46.00,APPROVED
ID: IDAHO FALLS,01/01/2017 20:56:00,,2763.00,1726.00,524.00,272.00,154.00,199.00,109.00,45.00,APPROVED
ID: IDAHO FALLS,01/01/2017 21:56:00,,2729.00,1670.00,514.00,264.00,148.00,192.00,102.00,44.00,APPROVED
ID: IDAHO FALLS,01/01/2017 22:56:00,,2747.00,1681.00,510.00,259.00,148.00,189.00,100.00,44.00,APPROVED
ID: IDAHO FALLS,01/01/2017 23:56:00,,2706.00,1659.00,496.00,256.00,147.00,186.00,99.00,44.00,APPROVED
ID: IDAHO FALLS,01/02/2017 00:56:00,,2704.00,1642.00,498.00,251.00,143.00,184.00,99.00,44.00,APPROVED
ID: IDAHO FALLS,01/02/2017 01:57:00,,2700.00,1641.00,495.00,246.00,143.00,182.00,99.00,43.00,APPROVED
ID: IDAHO FALLS,01/02/2017 02:57:00,,2674.00,1621.00,492.00,251.00,143.00,181.00,99.00,43.00,APPROVED
ID: IDAHO FALLS,01/02/2017 03:57:00,,2717.00,1669.00,503.00,259.00,144.00,190.00,102.00,44.00,APPROVED
ID: IDAHO FALLS,01/02/2017 04:57:00,,2824.00,1807.00,551.00,284.00,160.00,213.00,110.00,47.00,APPROVED
ID: IDAHO FALLS,01/02/2017 05:57:00,,2822.00,1818.00,559.00,286.00,162.00,220.00,109.00,49.00,APPROVED
ID: IDAHO FALLS,01/02/2017 06:58:00,,2821.00,1846.00,564.00,290.00,158.00,220.00,114.00,47.00,APPROVED
ID: IDAHO FALLS,01/02/2017 07:58:00,,2773.00,1805.00,552.00,292.00,159.00,218.00,114.00,46.00,APPROVED
ID: IDAHO FALLS,01/02/2017 08:58:00,,2778.00,1790.00,553.00,287.00,160.00,210.00,112.00,46.00,APPROVED
ID: IDAHO FALLS,01/02/2017 09:58:00,,2880.00,1908.00,594.00,305.00,169.00,232.00,118.00,50.00,APPROVED
ID: IDAHO FALLS,01/02/2017 10:58:00,,2741.00,1794.00,561.00,286.00,165.00,217.00,112.00,47.00,APPROVED
ID: IDAHO FALLS,01/02/2017 11:59:00,,2744.00,1775.00,547.00,283.00,156.00,211.00,112.00,46.00,APPROVED
ID: IDAHO FALLS,01/02/2017 12:59:00,,2807.00,1822.00,561.00,283.00,160.00,217.00,112.00,47.00,APPROVED
ID: IDAHO FALLS,01/02/2017 13:59:00,,2825.00,1847.00,579.00,292.00,161.00,221.00,115.00,48.00,APPROVED
ID: IDAHO FALLS,01/02/2017 14:59:00,,2771.00,1808.00,561.00,287.00,159.00,219.00,111.00,47.00,APPROVED
ID: IDAHO FALLS,01/02/2017 15:46:00,,2635.00,1686.00,527.00,267.00,151.00,200.00,103.00,46.00,APPROVED
ID: IDAHO FALLS,01/02/2017 16:53:00,,2453.00,1386.00,415.00,197.00,121.00,146.00,78.00,39.00,APPROVED
ID: IDAHO FALLS,01/02/2017 17:53:00,,2656.00,1590.00,484.00,233.00,137.00,178.00,93.00,42.00,APPROVED
ID: IDAHO FALLS,01/02/2017 18:53:00,,2794.00,1733.00,527.00,253.00,149.00,195.00,99.00,43.00,APPROVED
ID: IDAHO FALLS,01/02/2017 19:53:00,,2890.00,1808.00,555.00,268.00,155.00,204.00,105.00,45.00,APPROVED
ID: IDAHO FALLS,01/02/2017 20:54:00,,2694.00,1633.00,502.00,252.00,143.00,188.00,97.00,43.00,APPROVED
ID: IDAHO FALLS,01/02/2017 21:54:00,,2587.00,1526.00,463.00,236.00,134.00,168.00,93.00,41.00,APPROVED
ID: IDAHO FALLS,01/02/2017 22:54:00,,2509.00,1467.00,442.00,224.00,129.00,160.00,90.00,41.00,APPROVED
ID: IDAHO FALLS,01/02/2017 23:54:00,,2488.00,1456.00,440.00,218.00,129.00,158.00,88.00,42.00,APPROVED
ID: IDAHO FALLS,01/03/2017 00:54:00,,2463.00,1457.00,444.00,219.00,128.00,159.00,89.00,41.00,APPROVED
ID: IDAHO FALLS,01/03/2017 01:55:00,,2507.00,1485.00,455.00,224.00,132.00,167.00,87.00,41.00,APPROVED
ID: IDAHO FALLS,01/03/2017 02:55:00,,2534.00,1560.00,478.00,234.00,137.00,176.00,95.00,43.00,APPROVED
ID: IDAHO FALLS,01/03/2017 03:55:00,,2593.00,1609.00,497.00,243.00,140.00,187.00,96.00,43.00,APPROVED
ID: IDAHO FALLS,01/03/2017 04:55:00,,2497.00,1513.00,476.00,229.00,137.00,176.00,89.00,41.00,APPROVED
ID: IDAHO FALLS,01/03/2017 05:55:00,,2481.00,1499.00,462.00,224.00,132.00,171.00,88.00,42.00,APPROVED
ID: IDAHO FALLS,01/03/2017 06:56:00,,2517.00,1503.00,464.00,222.00,134.00,171.00,84.00,43.00,APPROVED
ID: IDAHO FALLS,01/03/2017 07:56:00,,2524.00,1524.00,474.00,230.00,136.00,179.00,90.00,43.00,APPROVED
ID: IDAHO FALLS,01/03/2017 08:56:00,,2506.00,1522.00,474.00,226.00,138.00,175.00,89.00,43.00,APPROVED
ID: IDAHO FALLS,01/03/2017 09:56:00,,2499.00,1497.00,466.00,223.00,135.00,172.00,87.00,42.00,APPROVED
ID: IDAHO FALLS,01/03/2017 10:56:00,,2506.00,1512.00,465.00,224.00,132.00,171.00,89.00,42.00,APPROVED
ID: IDAHO FALLS,01/03/2017 11:57:00,,2515.00,1515.00,462.00,228.00,136.00,173.00,90.00,42.00,APPROVED
ID: IDAHO FALLS,01/03/2017 12:57:00,,2515.00,1531.00,474.00,234.00,136.00,175.00,90.00,43.00,APPROVED
ID: IDAHO FALLS,01/03/2017 13:57:00,,2498.00,1519.00,469.00,232.00,134.00,177.00,92.00,42.00,APPROVED
ID: IDAHO FALLS,01/03/2017 14:57:00,,2505.00,1518.00,476.00,231.00,137.00,176.00,90.00,43.00,APPROVED
ID: IDAHO FALLS,01/03/2017 15:58:00,,2511.00,1527.00,479.00,230.00,137.00,181.00,91.00,43.00,APPROVED
ID: IDAHO FALLS,01/03/2017 16:58:00,,2533.00,1559.00,487.00,232.00,138.00,181.00,93.00,43.00,APPROVED
ID: IDAHO FALLS,01/03/2017 17:58:00,,2583.00,1615.00,498.00,238.00,141.00,187.00,93.00,43.00,APPROVED
ID: IDAHO FALLS,01/03/2017 18:58:00,,2663.00,1663.00,508.00,253.00,146.00,189.00,98.00,45.00,APPROVED
ID: IDAHO FALLS,01/03/2017 19:58:00,,2649.00,1635.00,511.00,252.00,142.00,195.00,98.00,45.00,APPROVED
ID: IDAHO FALLS,01/03/2017 20:59:00,,2626.00,1601.00,490.00,246.00,141.00,186.00,96.00,45.00,APPROVED
ID: IDAHO FALLS,01/03/2017 21:59:00,,2612.00,1587.00,483.00,247.00,142.00,182.00,95.00,42.00,APPROVED
ID: IDAHO FALLS,01/03/2017 22:59:00,,2655.00,1619.00,485.00,249.00,141.00,184.00,97.00,44.00,APPROVED
ID: IDAHO FALLS,01/03/2017 23:59:00,,2681.00,1646.00,495.00,252.00,143.00,183.00,97.00,44.00,APPROVED
ID: IDAHO FALLS,01/04/2017 00:59:00,,2631.00,1610.00,483.00,241.00,142.00,179.00,98.00,44.00,APPROVED
ID: IDAHO FALLS,01/04/2017 02:00:00,,2590.00,1565.00,477.00,238.00,138.00,176.00,93.00,43.00,APPROVED
ID: IDAHO FALLS,01/04/2017 03:00:00,,2539.00,1530.00,467.00,235.00,135.00,171.00,94.00,41.00,APPROVED
ID: IDAHO FALLS,01/04/2017 04:00:00,,2590.00,1589.00,487.00,242.00,136.00,184.00,95.00,42.00,APPROVED
ID: IDAHO FALLS,01/04/2017 05:00:00,,2592.00,1592.00,490.00,244.00,140.00,180.00,95.00,44.00,APPROVED
ID: IDAHO FALLS,01/04/2017 06:00:00,,2580.00,1579.00,488.00,244.00,138.00,180.00,95.00,43.00,APPROVED
ID: IDAHO FALLS,01/04/2017 07:01:00,,2646.00,1650.00,501.00,252.00,146.00,186.00,98.00,44.00,APPROVED
ID: IDAHO FALLS,01/04/2017 08:01:00,,2712.00,1711.00,527.00,261.00,148.00,197.00,104.00,45.00,APPROVED
ID: IDAHO FALLS,01/04/2017 09:01:00,,2715.00,1726.00,532.00,266.00,149.00,201.00,105.00,45.00,APPROVED
ID: IDAHO FALLS,01/04/2017 10:01:00,,2750.00,1750.00,536.00,271.00,153.00,206.00,103.00,48.00,APPROVED
ID: IDAHO FALLS,01/04/2017 11:01:00,,2684.00,1714.00,525.00,261.00,150.00,198.00,106.00,45.00,APPROVED
ID: IDAHO FALLS,01/04/2017 12:02:00,,2723.00,1750.00,536.00,273.00,152.00,207.00,103.00,45.00,APPROVED
ID: IDAHO FALLS,01/04/2017 13:02:00,,2727.00,1757.00,544.00,273.00,153.00,203.00,105.00,46.00,APPROVED
ID: IDAHO FALLS,01/04/2017 14:02:00,,2715.00,1717.00,528.00,266.00,150.00,196.00,103.00,45.00,APPROVED
ID: IDAHO FALLS,01/04/2017 15:02:00,,2675.00,1677.00,516.00,256.00,148.00,191.00,101.00,44.00,APPROVED
ID: IDAHO FALLS,01/04/2017 16:02:00,,2593.00,1581.00,487.00,243.00,138.00,179.00,97.00,42.00,APPROVED
ID: IDAHO FALLS,01/04/2017 17:03:00,,2603.00,1585.00,486.00,233.00,138.00,180.00,94.00,44.00,APPROVED
ID: IDAHO FALLS,01/04/2017 18:03:00,,2725.00,1689.00,523.00,261.00,146.00,195.00,100.00,43.00,APPROVED
ID: IDAHO FALLS,01/04/2017 19:03:00,,2807.00,1785.00,556.00,273.00,155.00,209.00,106.00,46.00,APPROVED
ID: IDAHO FALLS,01/04/2017 20:03:00,,2543.00,1558.00,489.00,238.00,138.00,183.00,97.00,43.00,APPROVED
ID: IDAHO FALLS,01/04/2017 21:03:00,,2341.00,1403.00,434.00,213.00,125.00,161.00,83.00,40.00,APPROVED
ID: IDAHO FALLS,01/04/2017 22:04:00,,2285.00,1330.00,410.00,201.00,119.00,148.00,81.00,39.00,APPROVED
ID: IDAHO FALLS,01/04/2017 23:04:00,,2262.00,1310.00,404.00,196.00,119.00,147.00,77.00,37.00,APPROVED
ID: IDAHO FALLS,01/05/2017 00:04:00,,2235.00,1287.00,395.00,191.00,116.00,142.00,76.00,38.00,APPROVED
ID: IDAHO FALLS,01/05/2017 01:04:00,,2198.00,1267.00,394.00,185.00,114.00,142.00,75.00,40.00,APPROVED
ID: IDAHO FALLS,01/05/2017 02:04:00,,2172.00,1244.00,389.00,181.00,114.00,139.00,72.00,39.00,APPROVED
ID: IDAHO FALLS,01/05/2017 03:05:00,,2160.00,1227.00,381.00,177.00,112.00,138.00,70.00,37.00,APPROVED
ID: IDAHO FALLS,01/05/2017 04:05:00,,2129.00,1211.00,374.00,173.00,110.00,135.00,70.00,39.00,APPROVED
ID: IDAHO FALLS,01/05/2017 05:05:00,,2111.00,1173.00,366.00,170.00,108.00,131.00,67.00,38.00,APPROVED
ID: IDAHO FALLS,01/05/2017 06:05:00,,2097.00,1177.00,363.00,170.00,109.00,130.00,67.00,37.00,APPROVED
ID: IDAHO FALLS,01/05/2017 07:06:00,,2098.00,1166.00,361.00,167.00,106.00,132.00,64.00,36.00,APPROVED
ID: IDAHO FALLS,01/05/2017 08:06:00,,2094.00,1157.00,357.00,169.00,109.00,132.00,64.00,37.00,APPROVED
ID: IDAHO FALLS,01/05/2017 09:06:00,,2118.00,1159.00,366.00,165.00,107.00,137.00,59.00,36.00,APPROVED
ID: IDAHO FALLS,01/05/2017 10:06:00,,2124.00,1169.00,359.00,166.00,105.00,136.00,58.00,36.00,APPROVED
ID: IDAHO FALLS,01/05/2017 11:06:00,,2132.00,1180.00,369.00,167.00,105.00,140.00,58.00,38.00,APPROVED
ID: IDAHO FALLS,01/05/2017 12:07:00,,2145.00,1186.00,371.00,169.00,108.00,140.00,60.00,38.00,APPROVED
ID: IDAHO FALLS,01/05/2017 13:07:00,,2129.00,1184.00,377.00,166.00,109.00,139.00,60.00,37.00,APPROVED
ID: IDAHO FALLS,01/05/2017 14:07:00,,2142.00,1195.00,377.00,170.00,111.00,138.00,60.00,37.00,APPROVED
ID: IDAHO FALLS,01/05/2017 15:07:00,,2152.00,1192.00,374.00,171.00,109.00,143.00,60.00,36.00,APPROVED
ID: IDAHO FALLS,01/05/2017 16:07:00,,2145.00,1196.00,379.00,170.00,109.00,142.00,61.00,37.00,APPROVED
ID: IDAHO FALLS,01/05/2017 17:08:00,,2194.00,1225.00,376.00,174.00,110.00,144.00,63.00,40.00,APPROVED
ID: IDAHO FALLS,01/05/2017 18:08:00,,2250.00,1267.00,390.00,180.00,114.00,143.00,66.00,37.00,APPROVED
ID: IDAHO FALLS,01/05/2017 19:08:00,,2296.00,1301.00,397.00,185.00,113.00,147.00,68.00,39.00,APPROVED
ID: IDAHO FALLS,01/05/2017 20:18:00,,2245.00,1231.00,377.00,174.00,111.00,133.00,67.00,37.00,APPROVED
ID: IDAHO FALLS,01/05/2017 21:18:00,,2310.00,1328.00,405.00,186.00,117.00,148.00,73.00,38.00,APPROVED
ID: IDAHO FALLS,01/05/2017 22:19:00,,2343.00,1358.00,416.00,197.00,121.00,151.00,77.00,40.00,APPROVED
ID: IDAHO FALLS,01/05/2017 23:19:00,,2352.00,1343.00,407.00,195.00,120.00,151.00,77.00,40.00,APPROVED
ID: IDAHO FALLS,01/06/2017 00:19:00,,2326.00,1311.00,398.00,188.00,115.00,144.00,78.00,37.00,APPROVED
ID: IDAHO FALLS,01/06/2017 01:19:00,,2277.00,1283.00,387.00,186.00,113.00,143.00,71.00,36.00,APPROVED
ID: IDAHO FALLS,01/06/2017 02:19:00,,2280.00,1297.00,400.00,186.00,116.00,145.00,73.00,38.00,APPROVED
ID: IDAHO FALLS,01/06/2017 03:20:00,,2234.00,1260.00,389.00,180.00,113.00,144.00,65.00,37.00,APPROVED
ID: IDAHO FALLS,01/06/2017 04:20:00,,2173.00,1202.00,373.00,169.00,111.00,140.00,58.00,36.00,APPROVED
ID: IDAHO FALLS,01/06/2017 05:20:00,,2158.00,1185.00,374.00,167.00,106.00,137.00,57.00,35.00,APPROVED
ID: IDAHO FALLS,01/06/2017 06:20:00,,2167.00,1194.00,367.00,166.00,106.00,138.00,58.00,38.00,APPROVED
ID: IDAHO FALLS,01/06/2017 07:20:00,,2153.00,1195.00,370.00,169.00,107.00,138.00,56.00,37.00,APPROVED
ID: IDAHO FALLS,01/06/2017 08:21:00,,2180.00,1206.00,375.00,170.00,109.00,138.00,60.00,38.00,APPROVED
ID: IDAHO FALLS,01/06/2017 09:21:00,,2198.00,1215.00,379.00,171.00,112.00,142.00,60.00,37.00,APPROVED
ID: IDAHO FALLS,01/06/2017 10:21:00,,2213.00,1257.00,395.00,177.00,112.00,148.00,64.00,38.00,APPROVED
ID: IDAHO FALLS,01/06/2017 11:21:00,,2242.00,1293.00,409.00,182.00,115.00,155.00,66.00,38.00,APPROVED
ID: IDAHO FALLS,01/06/2017 12:21:00,,2274.00,1339.00,425.00,191.00,122.00,162.00,69.00,40.00,APPROVED
ID: IDAHO FALLS,01/06/2017 13:22:00,,2334.00,1409.00,451.00,201.00,125.00,172.00,72.00,40.00,APPROVED
ID: IDAHO FALLS,01/06/2017 14:22:00,,2370.00,1430.00,466.00,204.00,130.00,174.00,74.00,39.00,APPROVED
ID: IDAHO FALLS,01/06/2017 15:22:00,,2421.00,1474.00,473.00,212.00,130.00,182.00,79.00,42.00,APPROVED
ID: IDAHO FALLS,01/06/2017 16:22:00,,2432.00,1498.00,482.00,215.00,132.00,185.00,79.00,42.00,APPROVED
ID: IDAHO FALLS,01/06/2017 17:22:00,,2469.00,1505.00,489.00,213.00,133.00,185.00,79.00,41.00,APPROVED
ID: IDAHO FALLS,01/06/2017 18:23:00,,2529.00,1526.00,487.00,220.00,136.00,183.00,80.00,41.00,APPROVED
ID: IDAHO FALLS,01/06/2017 19:23:00,,2573.00,1566.00,497.00,226.00,136.00,189.00,84.00,42.00,APPROVED
ID: IDAHO FALLS,01/06/2017 20:23:00,,2588.00,1580.00,504.00,227.00,138.00,187.00,87.00,44.00,APPROVED
ID: IDAHO FALLS,01/06/2017 21:23:00,,2604.00,1599.00,498.00,232.00,139.00,189.00,90.00,42.00,APPROVED
ID: IDAHO FALLS,01/06/2017 22:24:00,,2667.00,1622.00,500.00,235.00,139.00,190.00,89.00,42.00,APPROVED
ID: IDAHO FALLS,01/06/2017 23:24:00,,2644.00,1608.00,503.00,236.00,140.00,189.00,91.00,42.00,APPROVED
ID: IDAHO FALLS,01/07/2017 00:24:00,,2580.00,1590.00,496.00,233.00,142.00,186.00,91.00,42.00,APPROVED
ID: IDAHO FALLS,01/07/2017 01:24:00,,2518.00,1537.00,490.00,223.00,136.00,184.00,83.00,43.00,APPROVED
ID: IDAHO FALLS,01/07/2017 02:24:00,,2493.00,1515.00,489.00,216.00,134.00,182.00,78.00,41.00,APPROVED
ID: IDAHO FALLS,01/07/2017 03:25:00,,2477.00,1499.00,487.00,216.00,136.00,185.00,78.00,40.00,APPROVED
ID: IDAHO FALLS,01/07/2017 04:25:00,,2482.00,1494.00,484.00,217.00,135.00,182.00,77.00,40.00,APPROVED
ID: IDAHO FALLS,01/07/2017 05:25:00,,2484.00,1507.00,483.00,218.00,136.00,183.00,80.00,41.00,APPROVED
ID: IDAHO FALLS,01/07/2017 06:25:00,,2472.00,1512.00,487.00,218.00,134.00,184.00,82.00,42.00,APPROVED
ID: IDAHO FALLS,01/07/2017 07:25:00,,2467.00,1501.00,485.00,211.00,134.00,186.00,80.00,42.00,APPROVED
ID: IDAHO FALLS,01/07/2017 08:26:00,,2461.00,1509.00,489.00,218.00,132.00,186.00,78.00,41.00,APPROVED
ID: IDAHO FALLS,01/07/2017 09:26:00,,2462.00,1509.00,488.00,215.00,135.00,184.00,81.00,40.00,APPROVED
ID: IDAHO FALLS,01/07/2017 10:26:00,,2461.00,1512.00,489.00,218.00,137.00,187.00,82.00,43.00,APPROVED
ID: IDAHO FALLS,01/07/2017 11:26:00,,2453.00,1490.00,488.00,216.00,136.00,187.00,79.00,41.00,APPROVED
ID: IDAHO FALLS,01/07/2017 12:26:00,,2470.00,1509.00,489.00,214.00,132.00,183.00,80.00,41.00,APPROVED
ID: IDAHO FALLS,01/07/2017 13:27:00,,2469.00,1529.00,494.00,219.00,136.00,188.00,79.00,42.00,APPROVED
ID: IDAHO FALLS,01/07/2017 14:27:00,,2464.00,1526.00,498.00,216.00,139.00,190.00,81.00,40.00,APPROVED
ID: IDAHO FALLS,01/07/2017 15:27:00,,2463.00,1519.00,495.00,216.00,136.00,191.00,79.00,42.00,APPROVED
ID: IDAHO FALLS,01/07/2017 16:27:00,,2486.00,1532.00,497.00,218.00,139.00,192.00,80.00,43.00,APPROVED
ID: IDAHO FALLS,01/07/2017 17:27:00,,2524.00,1556.00,507.00,220.00,138.00,195.00,82.00,42.00,APPROVED
ID: IDAHO FALLS,01/07/2017 18:28:00,,2548.00,1566.00,504.00,220.00,137.00,189.00,81.00,42.00,APPROVED
ID: IDAHO FALLS,01/07/2017 19:28:00,,2568.00,1567.00,497.00,230.00,136.00,187.00,86.00,44.00,APPROVED
ID: IDAHO FALLS,01/07/2017 20:28:00,,2584.00,1591.00,504.00,232.00,138.00,189.00,87.00,44.00,APPROVED
ID: IDAHO FALLS,01/07/2017 21:28:00,,2588.00,1588.00,497.00,233.00,140.00,186.00,92.00,42.00,APPROVED
ID: IDAHO FALLS,01/07/2017 22:28:00,,2550.00,1550.00,483.00,225.00,138.00,176.00,89.00,42.00,APPROVED
ID: IDAHO FALLS,01/07/2017 23:29:00,,2521.00,1543.00,475.00,228.00,136.00,180.00,89.00,43.00,APPROVED
ID: IDAHO FALLS,01/08/2017 00:29:00,,2631.00,1620.00,496.00,240.00,139.00,183.00,92.00,43.00,APPROVED
ID: IDAHO FALLS,01/08/2017 01:29:00,,2576.00,1579.00,492.00,234.00,138.00,184.00,91.00,43.00,APPROVED
ID: IDAHO FALLS,01/08/2017 02:29:00,,2516.00,1534.00,475.00,225.00,134.00,176.00,89.00,42.00,APPROVED
ID: IDAHO FALLS,01/08/2017 03:29:00,,2523.00,1532.00,472.00,221.00,134.00,173.00,87.00,42.00,APPROVED
ID: IDAHO FALLS,01/08/2017 04:30:00,,2538.00,1542.00,470.00,226.00,135.00,177.00,90.00,41.00,APPROVED
ID: IDAHO FALLS,01/08/2017 05:30:00,,2533.00,1530.00,469.00,226.00,133.00,176.00,89.00,42.00,APPROVED
ID: IDAHO FALLS,01/08/2017 06:30:00,,2524.00,1538.00,469.00,231.00,134.00,176.00,92.00,42.00,APPROVED
ID: IDAHO FALLS,01/08/2017 07:30:00,,2548.00,1573.00,478.00,236.00,134.00,180.00,92.00,43.00,APPROVED
ID: IDAHO FALLS,01/08/2017 08:30:00,,2627.00,1641.00,500.00,251.00,142.00,186.00,98.00,45.00,APPROVED
ID: IDAHO FALLS,01/08/2017 09:31:00,,2629.00,1666.00,507.00,259.00,146.00,194.00,102.00,44.00,APPROVED
ID: IDAHO FALLS,01/08/2017 10:31:00,,2627.00,1654.00,506.00,260.00,145.00,190.00,102.00,45.00,APPROVED
ID: IDAHO FALLS,01/08/2017 11:31:00,,2648.00,1674.00,510.00,260.00,145.00,192.00,103.00,44.00,APPROVED
ID: IDAHO FALLS,01/08/2017 12:31:00,,2638.00,1653.00,505.00,256.00,144.00,194.00,101.00,45.00,APPROVED
ID: IDAHO FALLS,01/08/2017 13:31:00,,2594.00,1615.00,489.00,255.00,139.00,187.00,98.00,43.00,APPROVED
ID: IDAHO FALLS,01/08/2017 14:32:00,,2614.00,1632.00,501.00,252.00,141.00,186.00,98.00,42.00,APPROVED
ID: IDAHO FALLS,01/08/2017 15:32:00,,2608.00,1639.00,499.00,259.00,143.00,184.00,99.00,45.00,APPROVED
ID: IDAHO FALLS,01/08/2017 16:32:00,,2594.00,1621.00,497.00,252.00,139.00,186.00,95.00,44.00,APPROVED
ID: IDAHO FALLS,01/08/2017 17:32:00,,2563.00,1605.00,492.00,254.00,142.00,184.00,99.00,44.00,APPROVED
ID: IDAHO FALLS,01/08/2017 18:32:00,,2564.00,1605.00,488.00,249.00,139.00,182.00,95.00,44.00,APPROVED
ID: IDAHO FALLS,01/08/2017 19:33:00,,2551.00,1576.00,482.00,250.00,139.00,180.00,97.00,42.00,APPROVED
ID: IDAHO FALLS,01/08/2017 20:33:00,,2598.00,1615.00,491.00,255.00,142.00,183.00,99.00,43.00,APPROVED
ID: IDAHO FALLS,01/08/2017 21:33:00,,2633.00,1663.00,503.00,263.00,144.00,191.00,103.00,46.00,APPROVED
ID: IDAHO FALLS,01/08/2017 22:33:00,,2666.00,1690.00,504.00,272.00,146.00,192.00,105.00,45.00,APPROVED
ID: IDAHO FALLS,01/08/2017 23:33:00,,2718.00,1760.00,522.00,288.00,155.00,201.00,108.00,46.00,APPROVED
ID: IDAHO FALLS,01/09/2017 00:34:00,,2769.00,1808.00,540.00,298.00,155.00,208.00,114.00,47.00,APPROVED
ID: IDAHO FALLS,01/09/2017 01:34:00,,2883.00,1899.00,566.00,309.00,166.00,214.00,117.00,48.00,APPROVED
ID: IDAHO FALLS,01/09/2017 02:34:00,,2919.00,1930.00,572.00,320.00,161.00,220.00,119.00,48.00,APPROVED
ID: IDAHO FALLS,01/09/2017 03:34:00,,2990.00,2013.00,596.00,337.00,172.00,236.00,126.00,49.00,APPROVED
ID: IDAHO FALLS,01/09/2017 04:35:00,,2873.00,1929.00,575.00,331.00,169.00,229.00,125.00,47.00,APPROVED
ID: IDAHO FALLS,01/09/2017 05:35:00,,2752.00,1844.00,550.00,315.00,161.00,214.00,117.00,49.00,APPROVED
ID: IDAHO FALLS,01/09/2017 06:35:00,,2764.00,1848.00,552.00,317.00,164.00,218.00,123.00,49.00,APPROVED
ID: IDAHO FALLS,01/09/2017 07:35:00,,2660.00,1809.00,533.00,317.00,160.00,215.00,120.00,48.00,APPROVED
ID: IDAHO FALLS,01/09/2017 08:35:00,,2669.00,1835.00,539.00,324.00,163.00,221.00,118.00,49.00,APPROVED
ID: IDAHO FALLS,01/09/2017 09:36:00,,2593.00,1687.00,506.00,287.00,150.00,199.00,112.00,47.00,APPROVED
ID: IDAHO FALLS,01/09/2017 10:36:00,,2369.00,1435.00,439.00,233.00,128.00,156.00,92.00,42.00,APPROVED
ID: IDAHO FALLS,01/09/2017 11:36:00,,2336.00,1388.00,413.00,217.00,123.00,148.00,88.00,41.00,APPROVED
ID: IDAHO FALLS,01/09/2017 12:36:00,,2419.00,1456.00,433.00,226.00,124.00,155.00,89.00,41.00,APPROVED
ID: IDAHO FALLS,01/09/2017 13:36:00,,2280.00,1328.00,399.00,205.00,118.00,143.00,85.00,40.00,APPROVED
ID: IDAHO FALLS,01/09/2017 14:37:00,,2138.00,1219.00,369.00,186.00,105.00,127.00,76.00,37.00,APPROVED
ID: IDAHO FALLS,01/09/2017 15:37:00,,2096.00,1190.00,359.00,175.00,105.00,123.00,76.00,39.00,APPROVED
ID: IDAHO FALLS,01/09/2017 16:37:00,,2065.00,1154.00,345.00,169.00,103.00,121.00,74.00,36.00,APPROVED
ID: IDAHO FALLS,01/09/2017 17:37:00,,2064.00,1154.00,338.00,165.00,100.00,119.00,73.00,37.00,APPROVED
ID: IDAHO FALLS,01/09/2017 18:37:00,,2070.00,1139.00,340.00,166.00,100.00,114.00,72.00,37.00,APPROVED
ID: IDAHO FALLS,01/09/2017 19:36:00,,2069.00,1133.00,339.00,164.00,99.00,111.00,73.00,37.00,APPROVED
ID: IDAHO FALLS,01/09/2017 20:42:00,,2046.00,1109.00,325.00,157.00,98.00,109.00,68.00,35.00,APPROVED
ID: IDAHO FALLS,01/09/2017 21:42:00,,2024.00,1107.00,326.00,159.00,96.00,112.00,71.00,35.00,APPROVED
ID: IDAHO FALLS,01/09/2017 22:42:00,,2028.00,1108.00,326.00,157.00,96.00,112.00,70.00,34.00,APPROVED
ID: IDAHO FALLS,01/09/2017 23:42:00,,2020.00,1097.00,325.00,158.00,98.00,110.00,70.00,35.00,APPROVED
ID: IDAHO FALLS,01/10/2017 00:42:00,,2014.00,1096.00,326.00,155.00,97.00,111.00,68.00,34.00,APPROVED
ID: IDAHO FALLS,01/10/2017 01:43:00,,2010.00,1086.00,329.00,156.00,98.00,110.00,67.00,35.00,APPROVED
ID: IDAHO FALLS,01/10/2017 02:43:00,,1994.00,1080.00,325.00,156.00,96.00,111.00,69.00,35.00,APPROVED
ID: IDAHO FALLS,01/10/2017 03:43:00,,1983.00,1087.00,331.00,151.00,98.00,111.00,66.00,37.00,APPROVED
ID: IDAHO FALLS,01/10/2017 04:43:00,,1977.00,1074.00,325.00,155.00,97.00,111.00,69.00,36.00,APPROVED
ID: IDAHO FALLS,01/10/2017 05:43:00,,1982.00,1072.00,323.00,153.00,96.00,109.00,68.00,36.00,APPROVED
ID: IDAHO FALLS,01/10/2017 06:44:00,,1978.00,1065.00,320.00,154.00,95.00,111.00,64.00,36.00,APPROVED
ID: IDAHO FALLS,01/10/2017 07:44:00,,1980.00,1062.00,327.00,151.00,95.00,108.00,65.00,34.00,APPROVED
ID: IDAHO FALLS,01/10/2017 08:44:00,,1984.00,1075.00,323.00,155.00,98.00,109.00,66.00,35.00,APPROVED
ID: IDAHO FALLS,01/10/2017 09:44:00,,1989.00,1073.00,322.00,151.00,97.00,113.00,67.00,36.00,APPROVED
ID: IDAHO FALLS,01/10/2017 10:44:00,,2003.00,1084.00,326.00,155.00,98.00,111.00,66.00,36.00,APPROVED
ID: IDAHO FALLS,01/10/2017 11:45:00,,2049.00,1130.00,335.00,162.00,101.00,113.00,68.00,36.00,APPROVED
ID: IDAHO FALLS,01/10/2017 12:45:00,,2147.00,1199.00,357.00,174.00,104.00,125.00,73.00,37.00,APPROVED
ID: IDAHO FALLS,01/10/2017 13:45:00,,2111.00,1165.00,351.00,169.00,107.00,120.00,72.00,37.00,APPROVED
ID: IDAHO FALLS,01/10/2017 14:45:00,,2100.00,1161.00,348.00,167.00,103.00,118.00,71.00,36.00,APPROVED
ID: IDAHO FALLS,01/10/2017 15:45:00,,2040.00,1116.00,340.00,163.00,99.00,117.00,70.00,36.00,APPROVED
ID: IDAHO FALLS,01/10/2017 16:46:00,,2020.00,1106.00,334.00,160.00,98.00,114.00,69.00,37.00,APPROVED